This is the latest recevied weather packets stored in our database for station/object PY2UTU-WX. If no packets are shown the sender has not sent any weather packets the latest 10 day(s).
| Time | Temp. | Humidity | Pressure | Rain* | Wind** | Luminosity | Snow |
|---|---|---|---|---|---|---|---|
| 1778143347 | 24.44° C | 98% | 923.8 hPa | - | - | - | - |
| 1778142447 | 23.89° C | 98% | 923.9 hPa | - | - | - | - |
| 1778141547 | 23.89° C | 98% | 923.7 hPa | - | - | - | - |
| 1778140647 | 23.89° C | 98% | 923.6 hPa | - | - | - | - |
| 1778139747 | 23.89° C | 98% | 923.5 hPa | - | - | - | - |
| 1778138847 | 23.89° C | 98% | 923.7 hPa | - | - | - | - |
| 1778137947 | 23.33° C | 98% | 923.7 hPa | - | - | - | - |
| 1778137047 | 22.78° C | 98% | 923.8 hPa | - | - | - | - |
| 1778136147 | 23.33° C | 98% | 924 hPa | - | - | - | - |
| 1778135247 | 23.89° C | 98% | 923.9 hPa | - | - | - | - |
| 1778134347 | 22.78° C | 98% | 924.2 hPa | - | - | - | - |
| 1778133447 | 22.78° C | 98% | 924.1 hPa | - | - | - | - |
| 1778132546 | 22.78° C | 98% | 924.2 hPa | - | - | - | - |
| 1778131647 | 22.22° C | 98% | 924.2 hPa | - | - | - | - |
| 1778130746 | 22.78° C | 98% | 924.3 hPa | - | - | - | - |
| 1778129846 | 22.78° C | 98% | 924.4 hPa | - | - | - | - |
| 1778128946 | 22.22° C | 98% | 924.7 hPa | - | - | - | - |
| 1778128047 | 22.78° C | 98% | 924.8 hPa | - | - | - | - |
| 1778127146 | 22.78° C | 98% | 924.9 hPa | - | - | - | - |
| 1778126246 | 23.33° C | 98% | 924.9 hPa | - | - | - | - |
| 1778125347 | 23.89° C | 98% | 925.1 hPa | - | - | - | - |
| 1778124447 | 23.89° C | 98% | 925.2 hPa | - | - | - | - |
| 1778123547 | 23.33° C | 98% | 925.3 hPa | - | - | - | - |
| 1778122646 | 23.33° C | 98% | 925.3 hPa | - | - | - | - |
| 1778121747 | 23.89° C | 98% | 925.4 hPa | - | - | - | - |
* Rain since midnight (hover to see other rain measurements)
** Current wind speed in m/s (hover to see current wind gust speed)